星链-3782 (STARLINK-3782 )

导读 | 星芒AI

STARLINK-3782 是 SpaceX Starlink 卫星互联网项目中的第 3782 颗卫星。该卫星属于低轨通信卫星群,旨在为全球用户提供高速、低延迟的互联网服务。它运行在约 550 公里的近地轨道上,采用先进的推进系统和激光通信技术,以提升网络效率和稳定性。作为 Starlink 计划的一部分,STARLINK-3782 有助于扩大卫星覆盖范围,特别是在偏远和网络基础设施薄弱的地区。

基本信息
目录编号:
52273
目录名称:
STARLINK-3782
国际标识:
2022-041N
轨道中心:
EARTH
卫星名称:
星链-3782
卫星全名:
星链-3782 (STARLINK-3782 )
卫星状态:
在轨 (已飞行1340 天)
发射日期:
2022-04-21 UTC
国别 :
美国 (US)
星等 :
--
轨道信息
数据来源 国际轨道数据 AOE轨道数据
星历时间 2025-12-20T19:57:12+0800
12小时前
查看轨道信息
2025-12-16T11:00:00+0800
4天前
查看轨道信息
半长轴 6917.341km 6917.83km
偏心率 0.0000319 0.0001308
轨道倾角 53.218° 53.217°
近地点辐角 269.938° 77.822°
升交点赤经 95.009° 114.643°
平近点角 90.157° 275.559°
近地点 538.983km 538.79km
远地点 539.425km 540.6km
周期 95.426分钟 95.437分钟
每日圈数 15.090167 15.088565
详细信息
固有亮度:
5
最大亮度:
2.5
卫星平台:
Starlink v1.5
覆盖范围:
全球
运营商:
太空探索技术公司
运营商所在国:
美国
制造商(研发单位):
太空探索技术公司
制造商所在国:
美国
使用方式:
暂无
卫星简介
星链(Starlink)计划是由太空探索技术公司(SpaceX)提出的一个巨型低轨卫星互联网星座项目,计划在2019年至2024年间在太空搭建由约1.2万颗卫星组成的“星链”网络,其中1584颗将部署在地球上空550千米处的近地轨道,并从2020年开始工作。该卫星仍在工作。
2D轨道图
3D轨道图
轨道高度分析图
轨道倾角分析图
轨道综合分析图
查看轨道综合分析图